Temp
17 17 16 16 17 16 16 16 15 15 14 14 14 13 13 13 12 12 11 12 13 13 12 11 11 10 10 10 10 9 9 9 9 9 9 8 8 7 7 7 7 7 7
17 17 16 16 16 16 15 15 15 14 13 13 13 12 12 12 12 12 11 11 11 11 11 11 11 10 10 9 9 9 9 9 9 9 9 8 8 7 7 7 7 7 7
17 17 16 16 16 15 15 15 14 13 12 12 12 11 11 11 11 11 11 10 10 10 9 9 9 9 9 9 9 9 9 9 8 8 8 8 8 7 7 7 6 6 6
16 16 16 16 15 15 14 14 13 12 12 11 10 10 10 10 10 10 10 9 9 9 9 9 9 8 8 8 8 8 8 8 8 8 8 7 7 7 7 6 6 6 6
16 16 16 15 15 14 13 13 13 12 10 10 9 8 8 8 8 9 9 9 9 9 8 8 8 8 7 7 6 7 7 7 7 7 8 7 7 7 6 6 6 6 6
15 15 15 15 14 13 13 12 12 11 10 9 9 7 7 7 7 7 8 8 8 8 7 7 7 6 6 6 6 6 6 6 6 6 7 7 7 6 6 6 6 6 6
14 15 14 14 13 13 13 12 11 10 8 8 8 8 7 6 6 6 6 6 6 6 6 6 6 5 5 5 5 4 5 5 5 5 5 5 6 6 6 6 6 6 6
14 14 14 13 13 13 12 11 10 9 8 8 9 9 10 8 6 6 5 5 5 5 5 5 4 4 4 4 4 4 3 3 4 4 4 4 5 5 5 5 5 5 5
14 13 13 13 12 12 11 10 10 9 9 7 8 10 10 11 8 6 5 5 5 5 5 4 4 4 3 3 3 3 3 3 2 3 3 3 4 4 4 4 4 4 4
13 13 12 12 12 11 11 10 9 9 8 8 7 7 7 7 9 9 6 5 5 5 4 5 4 3 3 3 3 2 2 1 1 1 1 2 2 3 3 3 4 4 3
12 12 12 12 11 11 10 9 9 9 9 8 8 7 6 5 5 7 8 7 5 5 5 4 4 3 2 2 2 1 1 1 -0 -0 -0 0 1 1 2 2 3 3 3
11 11 11 11 11 10 9 9 9 8 8 7 6 6 7 7 7 6 6 6 5 5 4 4 3 3 2 1 1 1 0 0 -0 -1 -1 -1 -0 -0 0 1 1 1 2
11 11 10 10 10 9 8 8 8 7 7 7 6 6 5 5 5 5 5 6 5 5 4 3 3 2 1 1 -0 -0 -1 -1 -1 -2 -3 -2 -2 -2 -1 -1 -0 0 1
10 10 10 10 9 9 8 8 7 7 7 6 5 5 5 5 4 4 4 5 5 5 4 3 2 2 1 0 -1 -1 -2 -3 -2 -3 -3 -3 -3 -3 -2 -2 -1 -1 0
10 10 9 9 9 7 8 7 6 7 6 6 5 5 4 4 3 3 3 3 4 4 5 4 2 1 0 -0 -1 -2 -2 -3 -4 -4 -4 -4 -4 -3 -3 -2 -2 -2 -1
10 9 9 8 7 7 7 7 7 7 6 5 5 5 4 4 3 3 3 2 2 3 4 4 2 1 -1 -1 -2 -3 -3 -4 -4 -4 -5 -5 -4 -4 -4 -3 -3 -3 -3
9 8 9 7 7 7 6 7 7 6 6 5 5 5 4 4 3 3 2 2 2 2 2 3 1 -1 -2 -2 -2 -3 -3 -4 -3 -4 -5 -5 -5 -5 -4 -4 -4 -4 -4
8 9 8 8 7 7 7 6 6 6 5 4 5 4 4 3 3 3 2 2 2 1 1 2 1 -1 -2 -2 -3 -4 -4 -4 -4 -4 -5 -5 -5 -5 -5 -5 -4 -4 -4
8 8 8 7 7 6 6 6 5 5 5 5 5 4 4 3 3 3 2 2 1 0 -0 -0 -0 -1 -2 -3 -3 -3 -4 -4 -4 -5 -5 -5 -5 -5 -5 -5 -5 -5 -4
8 8 7 6 6 6 5 4 3 4 4 5 5 4 4 3 3 3 2 1 1 -0 -0 -1 -1 -1 -2 -3 -4 -4 -4 -4 -4 -4 -5 -5 -5 -5 -5 -5 -4 -4 -5
8 8 7 6 5 4 4 4 3 3 4 4 4 5 4 4 4 3 1 1 0 -0 -1 -1 -1 -2 -2 -2 -3 -4 -4 -4 -4 -4 -4 -4 -4 -4 -3 -4 -4 -4 -5
7 6 5 5 4 3 4 3 3 3 4 4 3 3 4 4 3 2 2 1 0 -0 -1 -1 -2 -2 -2 -3 -4 -5 -5 -4 -4 -4 -4 -4 -4 -3 -3 -3 -4 -5 -5
5 4 4 3 2 3 4 2 3 3 3 3 3 3 2 2 3 1 1 0 -1 -1 -2 -2 -3 -3 -3 -4 -5 -5 -4 -5 -4 -5 -5 -4 -4 -3 -3 -3 -3 -4 -4
4 3 2 2 3 3 2 1 2 3 2 2 2 2 2 1 1 1 0 -1 -1 -2 -3 -4 -4 -4 -4 -5 -5 -5 -6 -5 -5 -5 -5 -5 -4 -4 -4 -4 -3 -4 -3
2 2 2 3 2 2 2 2 2 2 1 2 2 2 1 1 1 1 -1 -2 -2 -2 -4 -4 -4 -4 -5 -5 -6 -5 -5 -5 -5 -5 -5 -5 -4 -4 -4 -4 -3 -4 -4
3 3 3 2 2 1 2 2 2 1 1 1 2 2 2 1 1 1 -1 -1 -2 -2 -3 -4 -4 -5 -5 -5 -6 -6 -5 -5 -5 -5 -4 -6 -5 -5 -4 -3 -3 -3 -3
Height
872 873 875 876 878 881 882 882 883 883 884 884 885 886 887 886 885 885 886 883 882 883 882 882 882 883 882 882 882 882 882 881 880 879 878 877 875 874 872 871 869 868 865
871 874 875 876 878 881 880 882 883 885 885 886 887 887 887 887 886 885 886 884 883 883 883 882 883 883 883 882 882 882 881 881 880 879 878 876 874 873 871 870 869 867 865
871 873 875 876 878 880 880 881 884 885 886 886 887 887 887 888 887 887 887 885 884 884 883 883 883 883 882 882 881 881 881 880 879 878 877 875 873 871 870 868 867 866 863
871 873 874 875 878 880 881 881 883 884 886 886 887 887 887 888 887 887 887 886 885 885 884 883 883 883 882 882 881 880 880 879 878 876 875 873 871 870 868 866 865 863 861
872 874 873 872 875 880 882 882 883 885 885 888 887 887 887 888 888 887 887 887 886 885 885 883 883 882 881 881 880 880 879 878 876 874 872 870 869 867 866 864 862 860 858
871 873 871 871 874 881 880 881 883 884 884 887 887 886 886 886 886 886 886 886 885 884 883 882 882 881 880 879 879 879 877 876 874 873 871 868 866 864 862 861 859 857 855
868 868 870 872 876 878 879 881 881 882 884 885 886 888 886 885 885 884 884 885 884 883 882 880 880 880 879 878 877 877 875 873 872 871 869 866 864 862 859 857 855 854 852
864 867 869 874 874 875 877 878 880 880 882 882 883 883 882 884 883 881 881 881 881 882 882 880 878 878 877 877 875 874 872 870 869 868 865 863 861 858 856 853 851 850 848
860 866 870 871 872 874 876 878 880 879 876 878 878 878 878 875 880 880 880 880 880 880 880 879 877 876 876 875 873 871 869 867 865 864 862 859 857 854 851 849 847 845 843
858 862 866 868 869 871 873 875 878 878 878 876 876 876 876 877 875 874 878 878 878 878 878 877 876 874 872 871 869 867 865 864 861 860 858 856 853 850 847 845 842 840 839
857 858 861 862 864 865 868 870 875 873 872 870 871 873 875 875 876 876 872 874 876 875 875 874 873 872 870 869 868 866 863 860 857 855 853 851 849 846 843 840 837 835 833
853 855 857 858 860 861 861 861 862 869 868 868 870 871 872 872 872 872 871 871 872 872 872 871 870 869 867 865 863 861 859 856 853 849 847 845 843 840 837 834 831 829 828
844 848 852 854 857 859 861 859 859 864 863 864 866 868 869 870 870 871 871 869 869 868 869 868 866 865 863 861 859 856 854 850 847 843 841 838 836 833 830 828 825 823 821
840 844 849 852 855 857 856 863 856 859 860 861 863 864 866 866 867 868 868 868 865 864 865 864 863 861 859 858 855 852 849 845 841 838 835 832 830 827 824 822 820 817 815
838 843 846 848 849 851 854 856 856 857 858 859 861 862 863 864 864 864 865 865 864 860 856 856 859 857 856 854 851 848 844 840 836 832 829 826 824 821 819 816 814 812 809
834 838 843 846 847 849 852 850 853 854 855 856 858 859 859 860 860 860 861 862 861 860 854 854 854 854 852 850 847 843 839 834 830 826 823 821 818 815 813 810 808 805 803
828 833 837 841 845 846 846 850 850 851 851 852 854 856 855 855 856 856 857 857 857 856 853 850 851 850 848 845 843 839 835 830 826 822 818 814 811 809 807 804 801 798 796
822 830 832 835 836 840 844 847 848 848 848 848 848 849 850 850 850 851 852 852 851 851 850 846 846 846 844 841 838 834 830 826 822 817 813 809 806 803 801 798 795 792 789
820 826 831 833 837 838 842 844 843 844 844 845 845 844 844 845 845 845 846 846 846 845 845 843 840 840 839 837 833 830 826 822 818 813 808 804 801 799 795 792 788 785 781
817 824 830 836 838 839 841 841 841 841 839 840 839 839 838 837 838 839 840 840 840 840 840 839 836 835 834 832 830 826 821 818 813 809 804 801 797 793 789 785 782 778 774
815 821 824 828 834 834 836 835 837 837 835 834 832 831 830 829 830 832 833 834 834 835 835 834 832 830 828 827 825 823 819 815 810 805 800 797 792 788 784 780 776 773 769
815 820 820 822 826 831 833 833 833 831 829 826 823 822 821 821 823 824 826 827 828 829 829 829 827 825 824 823 822 820 817 812 806 801 797 792 788 782 779 775 771 766 763
816 818 821 824 826 827 828 828 828 826 822 819 816 815 814 813 815 818 819 820 821 821 823 823 822 821 820 819 818 816 813 810 804 799 795 788 783 777 774 770 765 760 757
816 818 820 823 824 824 823 822 822 819 815 812 809 808 807 807 807 810 812 813 814 815 816 816 816 815 815 814 814 812 810 806 801 795 791 785 779 774 769 765 761 757 754
817 819 820 820 819 818 818 817 816 812 808 804 802 799 799 799 800 803 804 806 808 808 808 808 809 808 808 808 808 807 805 801 795 791 787 782 776 771 766 760 758 755 751
816 817 816 815 814 813 813 811 809 806 801 797 794 792 791 792 794 796 797 799 800 801 803 803 803 802 802 802 802 802 800 797 794 788 784 783 777 773 763 757 755 751 747
Wind_Speed
14 15 17 17 15 13 10 9 8 7 6 5 5 5 6 6 6 6 6 5 2 2 5 7 6 6 6 6 7 7 7 8 9 9 10 9 11 13 15 17 19 20 21
15 16 17 15 13 11 10 8 7 6 6 5 4 3 4 5 8 8 6 7 4 7 9 7 5 5 6 5 6 5 5 6 7 9 10 8 8 10 12 14 17 19 20
16 16 16 14 12 11 8 8 7 5 5 4 4 4 3 3 4 4 4 4 5 3 8 10 8 6 5 4 4 5 7 8 10 11 12 8 10 11 13 14 16 18 18
16 16 15 14 12 10 8 7 6 4 2 3 5 4 4 4 5 5 4 5 5 5 4 2 1 2 4 5 6 8 9 10 11 13 13 11 13 13 11 14 17 17 17
17 16 15 14 12 10 9 6 4 3 4 4 4 5 5 5 5 5 5 5 5 4 3 2 2 4 5 5 6 8 11 13 14 14 14 14 13 11 13 17 18 18 18
19 17 14 14 12 10 7 6 4 5 5 5 5 5 5 5 6 6 5 4 2 1 1 0 3 4 5 6 5 7 10 12 14 15 17 18 18 18 19 18 18 19 18
19 17 16 14 13 9 7 7 7 6 4 6 6 3 3 4 6 6 6 4 2 2 0 2 2 3 4 4 6 7 10 12 15 17 18 18 19 20 20 20 21 20 21
19 17 16 15 12 10 9 8 9 6 4 7 4 2 3 6 7 8 7 5 4 1 1 2 3 2 3 4 6 9 12 14 16 18 19 21 23 23 23 23 22 23 23
20 18 16 14 12 9 8 8 9 9 10 6 6 3 3 3 2 6 8 5 4 4 4 5 5 5 6 7 10 12 15 17 15 17 18 19 21 22 22 23 23 25 26
22 20 18 15 11 10 9 9 8 6 5 6 4 5 5 3 3 3 4 4 6 7 6 9 7 6 9 9 13 15 13 15 16 16 18 20 21 23 24 25 27 28 28
22 22 20 17 15 14 14 9 6 5 8 8 6 5 4 3 4 6 7 6 6 7 10 9 9 9 9 13 12 12 15 17 19 19 21 23 25 26 28 30 31 32 33
24 23 21 18 17 17 14 10 6 11 7 4 5 5 5 4 4 6 7 9 9 11 10 9 10 11 10 11 15 14 19 25 29 27 26 27 28 29 30 31 32 33 33
31 29 25 21 20 16 11 12 11 11 8 6 8 6 6 6 5 6 8 11 10 10 8 10 11 10 10 11 10 22 23 26 26 25 24 24 25 25 26 27 28 29 30
32 30 25 22 19 10 11 15 13 11 9 10 9 8 8 8 9 9 10 9 8 11 10 14 11 11 10 11 16 26 20 22 24 24 23 24 24 24 24 25 26 27 28
32 29 26 23 16 16 17 15 10 9 9 9 9 10 11 12 11 11 11 11 12 9 9 13 12 9 11 14 18 19 21 21 25 23 24 24 23 24 25 26 26 27 28
30 30 26 21 15 19 16 14 9 10 11 11 12 11 11 11 11 11 13 12 13 15 11 16 14 14 13 17 17 19 20 23 22 23 22 22 24 24 26 26 28 30 29
33 31 27 20 20 18 13 9 8 11 14 14 15 14 12 12 12 13 13 13 13 13 16 19 13 14 15 17 18 18 19 20 20 22 23 24 25 25 27 27 28 28 29
36 32 28 24 23 16 12 8 8 14 17 17 17 16 15 13 15 14 14 15 14 14 16 19 18 16 16 16 17 18 19 19 21 21 23 23 23 21 21 23 25 26 26
33 29 24 22 19 14 10 11 9 16 20 21 20 19 18 14 15 16 16 15 15 14 14 15 20 16 16 16 16 17 18 20 19 21 23 19 18 20 23 24 23 25 26
32 27 21 16 14 9 6 8 14 19 22 23 25 24 22 21 20 18 17 17 15 14 14 15 17 17 16 15 15 16 19 19 21 21 17 15 20 21 22 20 19 20 20
27 25 24 20 14 5 8 16 17 19 21 24 27 29 27 27 26 21 17 16 15 15 14 15 16 15 16 15 15 16 18 20 21 17 16 20 21 19 17 17 17 17 19
22 21 21 20 14 10 16 17 20 20 23 24 24 24 28 29 26 24 21 21 18 15 16 16 15 15 16 15 14 14 17 19 18 18 21 25 19 19 17 18 21 23 19
17 17 14 8 7 14 20 18 20 25 23 22 22 22 20 24 26 21 20 20 20 20 20 16 16 16 16 14 13 15 16 19 22 25 22 23 20 19 17 20 24 21 11
13 10 9 11 16 21 20 20 23 27 25 26 25 23 21 21 24 23 18 16 17 17 18 18 17 17 16 13 13 15 18 21 22 21 18 20 17 19 21 22 18 15 11
8 11 13 17 21 25 21 22 25 23 23 24 23 24 22 21 23 25 19 18 17 18 18 22 21 19 17 15 14 15 17 19 20 21 17 11 16 23 21 19 12 14 21
7 13 20 22 22 19 22 25 22 20 23 22 23 23 23 23 26 26 23 21 18 19 16 15 15 16 16 16 16 15 16 17 18 15 6 14 17 15 10 10 21 18 17
Wind_Direction
152 147 144 141 141 146 145 136 125 108 93 81 60 29 18 47 54 47 35 9 28 102 125 120 104 101 101 74 57 51 53 31 22 18 14 17 15 11 9 6 3 360 358
161 158 154 152 155 158 142 131 117 116 113 92 78 67 57 49 21 19 48 63 74 117 103 96 93 84 90 65 54 40 24 6 358 352 343 343 356 1 0 359 357 352 351
173 173 170 164 159 153 143 135 129 119 108 100 110 115 98 47 42 38 58 75 90 119 117 101 89 73 55 27 1 342 326 327 324 325 328 326 334 337 338 343 346 343 343
185 180 174 168 163 152 143 137 134 121 118 131 143 142 135 130 131 124 104 116 111 98 88 107 52 27 25 3 339 328 319 318 316 314 312 310 314 315 327 330 331 332 331
187 189 183 171 162 158 153 147 160 152 138 150 146 149 145 133 132 129 126 110 99 78 41 331 329 326 324 332 340 325 316 313 311 309 304 307 308 310 317 320 321 321 321
193 191 179 170 162 167 157 172 173 168 163 168 151 150 151 154 153 154 148 136 121 6 132 337 354 343 308 304 332 330 323 319 316 312 307 305 304 303 307 308 310 311 313
191 187 180 172 172 169 178 184 175 166 149 176 152 167 177 174 180 177 177 170 157 130 73 11 5 339 325 319 319 334 326 322 316 311 307 304 303 300 298 300 303 303 305
189 187 185 182 177 181 182 186 195 169 152 178 196 214 229 219 217 209 205 212 224 234 355 344 336 343 332 326 325 324 326 324 318 310 303 298 297 293 293 295 297 300 302
188 191 192 187 181 180 176 183 194 190 175 180 185 199 227 266 256 219 227 234 242 255 307 322 314 327 331 318 318 321 321 320 317 313 308 303 299 296 293 294 295 296 298
191 193 192 186 180 172 169 168 179 188 186 165 159 194 214 228 278 268 227 247 265 277 293 310 294 311 309 313 315 319 318 315 314 315 310 306 302 298 295 293 293 295 295
195 192 192 187 180 171 163 156 164 195 199 195 187 187 211 209 222 264 290 286 288 285 298 299 287 300 300 311 317 316 310 311 314 310 306 301 298 295 292 291 291 290 291
194 195 192 187 182 173 174 195 187 209 202 185 190 191 220 240 256 263 275 287 287 288 293 288 286 289 291 297 306 304 307 305 302 302 301 297 294 292 290 288 288 288 287
199 198 195 191 187 190 221 181 186 202 201 195 192 203 214 239 248 260 266 282 283 293 284 277 279 275 282 291 295 309 311 306 306 305 304 301 299 296 294 292 290 287 285
207 201 197 193 187 213 183 212 195 201 210 204 209 222 236 241 244 247 255 277 282 280 282 283 281 275 279 284 302 308 309 307 307 306 303 300 299 299 298 295 292 289 286
213 205 195 189 194 232 203 208 203 211 224 220 228 238 248 249 250 249 243 246 267 291 297 306 283 281 281 290 301 307 306 304 306 302 300 301 298 297 296 293 291 291 290
210 199 195 199 243 198 206 202 208 228 233 230 230 241 248 246 248 239 238 243 251 268 289 301 289 286 289 298 300 305 303 305 302 302 302 300 295 292 292 290 288 287 285
211 203 199 222 201 199 195 206 220 241 230 225 228 244 245 242 239 233 238 245 250 257 274 292 288 289 291 297 302 305 304 303 302 302 301 299 293 291 290 288 287 288 284
211 204 205 200 193 192 201 210 264 255 237 228 232 235 242 236 234 237 241 243 251 259 265 283 294 291 292 298 302 305 303 301 302 302 300 298 295 292 293 289 286 287 286
204 203 203 192 194 189 193 231 270 258 247 242 243 241 246 237 237 239 239 248 254 253 255 268 287 288 291 299 303 306 305 306 306 303 301 298 294 294 294 291 289 286 284
202 197 194 194 183 166 218 275 260 257 255 251 253 254 252 246 242 240 239 247 251 248 257 266 278 285 290 298 301 307 309 311 311 309 300 298 300 298 297 295 299 294 290
198 196 191 184 179 194 278 297 263 269 270 264 264 263 260 254 248 240 236 251 242 246 256 266 274 280 288 300 303 307 304 312 315 311 305 307 306 303 300 301 301 299 297
197 193 180 175 194 222 290 279 281 282 281 275 269 264 260 253 244 241 243 253 241 244 252 260 266 273 286 296 296 301 307 311 314 316 310 307 306 300 299 303 304 304 298
177 159 167 189 219 252 289 284 279 292 287 283 276 267 255 245 237 230 242 246 247 250 248 252 256 268 283 287 289 295 301 305 304 307 308 304 308 298 303 308 310 308 287
148 179 197 231 255 274 279 280 282 288 287 284 279 271 254 241 230 227 233 229 232 239 239 240 248 264 273 269 276 289 297 300 301 303 304 296 304 306 309 310 314 316 286
183 213 237 258 271 283 285 285 294 295 288 284 281 273 257 239 230 230 231 227 235 244 247 247 251 263 263 262 268 286 293 304 305 310 312 298 307 314 312 306 312 309 310
254 268 275 272 280 278 285 295 295 293 291 285 284 275 262 240 235 234 231 230 231 246 242 237 244 257 254 256 259 265 283 293 299 311 307 319 314 323 315 309 322 319 318